Вернуться в каталог

STARLINK-11424

АктивенСвязьVLEO
NORAD 61949·PAYLOAD·🇺🇸 United States

Запущен Nov 14, 2024 с Vandenberg Space Force Base

Loading…

Ближайшие Пролёты (ближайшие 24 часа)

TLE

СвежийSource: CelesTrak SupGP

Эпоха: Sep 15, 2026, 03:05 UTC

1 61949C 24209L   26258.12895833  .00031404  00000+0  25865-3 0  2586
2 61949  53.1569 157.2822 0001177  84.1648 254.1263 15.69696522    19

Отслеживайте STARLINK-11424 в реальном времени с AllMySat

Download on the App Store